Temperature
17 17 17 17 17 17 16 16 16 16 16 16 16 16 16 16 16 16 16 16 15 15 15 15 15 15 15 15 15 15 15 15 14 14 14 14 14 14
17 17 17 17 16 16 16 16 16 16 15 16 16 16 16 16 16 16 15 15 15 15 15 15 15 15 15 15 15 14 14 14 14 14 14 14 14 14
17 17 17 17 17 16 16 16 16 16 16 16 16 15 15 15 15 15 15 15 15 15 15 15 15 15 15 15 14 14 14 14 14 14 14 14 14 14
17 17 17 17 17 16 16 16 16 16 16 15 15 15 15 15 15 15 15 15 15 15 15 15 14 14 14 14 14 14 14 14 14 14 14 14 14 13
16 16 16 16 16 16 16 16 16 16 15 15 15 15 15 15 15 15 15 15 14 14 14 14 14 14 14 14 14 14 14 14 14 14 14 13 13 13
16 16 16 16 16 16 16 16 16 15 15 15 15 15 14 14 14 14 14 14 14 14 14 14 14 14 14 14 14 14 14 14 14 13 13 13 13 13
16 16 16 16 16 16 16 15 15 15 15 15 15 14 14 14 14 14 14 14 14 14 14 14 14 14 14 14 13 13 13 13 13 13 13 13 13 13
16 16 16 16 16 15 15 15 15 15 15 15 14 14 14 14 14 14 14 14 13 14 13 14 14 13 13 13 13 13 13 13 13 13 13 13 12 12
15 15 15 15 15 15 15 15 15 15 14 14 14 14 14 14 14 14 14 13 13 13 13 13 13 13 13 13 13 13 13 12 12 13 12 12 12 12
15 15 15 15 15 15 15 15 15 14 14 14 14 14 14 14 14 14 13 13 13 13 13 12 13 13 13 13 13 12 12 12 12 12 12 12 12 12
14 14 14 14 14 14 14 14 14 14 14 14 14 14 14 13 13 13 13 13 13 12 12 12 12 12 12 12 12 12 12 12 12 12 12 12 12 11
14 14 14 14 14 14 14 14 14 14 14 14 14 14 13 13 13 13 13 13 13 12 12 12 12 12 12 12 12 12 11 11 12 12 12 12 11 11
14 14 14 14 13 13 13 13 13 13 13 13 13 13 13 13 13 13 12 12 12 12 12 12 12 11 11 11 11 11 11 11 11 11 11 11 11 11
14 14 13 13 13 13 13 13 13 13 13 13 12 12 12 12 12 12 12 12 12 11 11 11 11 11 11 11 11 11 11 11 11 11 11 11 11 11
13 13 13 13 13 13 13 13 13 13 12 12 12 12 12 12 12 12 12 11 11 11 11 11 11 11 11 10 10 10 11 10 10 10 10 10 10 10
13 13 13 13 12 12 12 12 12 12 12 12 12 12 12 11 11 11 11 11 11 11 11 11 11 11 10 10 10 10 10 10 10 10 10 10 10 10
12 12 12 12 12 12 12 12 12 11 11 11 11 11 11 11 11 11 11 11 11 11 11 11 10 10 10 10 10 10 10 10 10 10 10 10 10 10
12 12 12 12 12 11 11 11 11 11 11 11 11 11 10 10 10 10 10 10 10 10 10 10 10 10 10 9 9 9 9 10 10 10 10 10 10 10
12 12 11 11 11 11 11 11 11 11 11 10 10 10 10 10 10 10 10 10 10 10 10 10 9 9 9 9 9 9 9 9 9 9 9 9 9 9
11 11 11 11 11 10 10 10 10 10 10 10 10 9 9 9 9 9 9 9 9 9 9 9 9 9 9 9 8 9 9 9 9 9 9 9 9 9
11 11 10 10 10 10 10 10 10 10 10 9 9 9 9 9 9 9 9 9 9 9 9 9 9 9 8 8 8 8 9 9 9 9 9 9 9 9
10 10 10 10 10 10 10 9 9 9 9 9 9 9 9 9 9 9 8 8 8 8 8 8 8 8 8 8 8 8 8 8 8 8 8 8 8 8
10 10 10 10 9 9 9 9 9 9 9 9 8 8 8 8 8 8 8 8 8 8 8 8 8 8 8 8 8 8 8 8 8 8 8 8 8 8
Wind_Speed
5 5 4 4 4 4 4 4 3 3 3 3 2 2 2 3 4 4 4 5 5 5 5 5 5 5 5 5 5 5 5 5 4 5 5 5 5 6
3 4 4 3 3 3 4 4 4 4 3 2 3 2 2 2 2 2 3 4 5 5 5 5 5 5 5 5 5 5 5 5 5 4 5 5 5 5
3 4 5 4 3 3 3 3 3 3 4 3 2 1 1 2 1 1 2 2 3 4 5 5 5 5 4 5 5 4 5 5 5 5 5 5 5 4
4 4 5 3 3 3 3 3 3 4 4 4 2 1 2 2 1 1 1 1 2 2 3 4 4 4 5 4 4 4 4 5 5 5 5 5 4 4
5 5 5 4 4 3 3 3 3 3 3 3 3 1 1 1 0 0 0 0 1 2 2 3 3 4 4 4 4 5 5 5 5 5 5 5 4 4
5 4 4 5 5 4 4 4 3 3 3 3 2 1 1 1 1 1 1 1 1 1 1 2 3 3 4 4 5 5 6 6 6 6 6 5 5 4
4 4 4 4 5 4 4 4 4 3 3 3 3 2 2 1 2 2 2 1 1 1 1 2 2 2 2 4 4 5 5 5 5 6 6 6 6 5
4 4 4 4 4 5 5 5 5 5 5 4 4 4 5 4 3 3 2 2 2 1 2 2 2 2 3 3 4 5 5 5 5 6 6 6 6 5
4 4 3 3 3 3 3 4 4 5 6 6 6 6 5 5 4 4 4 3 4 2 2 2 2 3 3 3 4 4 5 5 5 5 6 6 6 6
4 4 4 3 2 2 3 3 3 4 5 5 6 6 5 5 5 5 5 3 1 1 2 2 2 2 2 2 3 4 5 5 5 5 5 6 6 6
3 3 3 3 4 3 3 3 3 3 2 2 3 4 4 4 4 3 3 3 2 2 2 2 1 1 2 2 3 4 5 6 6 6 6 6 7 6
2 2 2 3 3 2 3 4 3 3 1 1 1 1 1 2 4 5 5 4 2 2 2 2 2 1 1 2 2 2 3 4 5 5 6 6 6 5
2 3 3 3 3 2 2 3 4 3 2 1 1 1 1 1 1 3 4 4 4 3 3 3 2 2 2 1 1 2 2 2 3 3 5 6 6 6
3 3 3 2 2 2 2 2 2 2 1 1 0 1 1 1 1 2 3 3 3 4 4 4 2 2 2 2 2 1 2 2 2 2 3 4 5 7
2 3 2 2 1 1 0 1 2 1 1 1 1 2 2 2 1 1 0 0 0 1 3 4 3 3 3 3 2 2 2 2 2 2 3 3 3 3
1 1 1 1 1 1 1 1 1 0 1 1 1 1 1 1 1 1 0 0 0 1 1 1 3 4 3 3 3 3 2 2 2 3 3 3 4 4
0 1 2 2 1 2 2 1 1 1 1 1 1 1 1 1 1 1 0 0 1 1 1 0 1 2 2 2 2 2 2 2 3 2 2 3 3 4
2 1 1 1 1 0 0 1 1 1 0 0 1 1 1 1 1 1 1 0 0 1 1 1 0 0 0 1 2 3 2 3 2 2 2 3 4 3
2 1 1 0 0 0 0 0 1 1 1 0 1 0 0 0 0 1 1 1 1 1 1 1 1 1 1 2 1 2 3 2 2 2 2 3 4 4
1 1 1 1 1 0 0 0 1 1 1 1 1 0 0 0 0 1 1 1 2 2 2 1 1 1 2 2 2 2 2 3 2 3 3 3 3 3
1 1 1 1 1 1 0 0 0 0 1 1 0 1 1 1 1 1 1 2 1 1 2 2 2 2 1 1 1 2 2 3 3 3 3 3 3 2
1 1 1 1 1 1 0 0 0 1 1 1 1 1 1 1 1 1 1 1 2 2 2 2 2 1 0 1 2 3 3 2 2 3 3 4 3 3
0 1 1 1 1 1 1 1 1 1 1 2 2 2 2 1 1 1 2 2 2 2 2 2 1 1 2 2 2 3 3 3 2 2 2 3 4 6
Wind_Direction
234 231 232 231 219 219 212 207 206 253 275 272 268 262 247 247 254 242 242 244 243 244 241 235 229 222 220 225 223 216 213 222 236 241 238 238 245 249
234 231 236 233 225 220 212 212 212 220 250 249 250 281 271 263 264 229 237 240 237 237 232 222 218 212 210 212 206 207 213 224 228 229 233 235 238 244
241 235 241 228 223 226 215 208 211 207 235 264 257 280 261 266 291 225 228 220 229 226 219 213 212 207 204 206 210 214 221 225 226 226 230 233 236 235
241 238 243 233 224 222 216 218 216 211 214 245 256 247 251 250 243 231 236 221 221 220 209 208 206 206 210 212 215 219 224 225 224 226 226 225 226 224
236 235 239 227 231 227 218 220 222 219 212 220 242 235 247 242 219 272 285 288 232 208 203 211 211 215 218 217 219 223 225 224 223 223 218 214 218 226
237 231 229 224 227 223 222 224 219 214 208 211 226 236 244 260 190 204 257 263 261 225 223 220 215 219 223 223 223 223 223 221 220 217 207 204 207 214
239 232 232 227 225 219 220 216 210 214 211 214 224 221 234 240 233 214 226 245 260 242 227 234 216 224 230 234 232 229 225 223 218 212 205 205 206 211
239 244 244 236 234 229 223 214 205 210 215 217 226 225 235 231 222 211 207 217 250 229 206 247 221 245 246 232 234 229 224 221 214 206 204 205 205 209
233 241 254 261 238 232 231 226 223 220 211 211 222 229 229 225 213 217 217 221 230 215 194 242 237 252 253 256 244 229 219 215 213 209 208 209 209 210
240 236 242 259 250 232 230 236 242 240 232 221 223 227 226 223 211 209 211 215 229 227 198 226 241 251 264 248 232 225 223 218 215 214 214 210 208 209
264 254 244 253 261 236 214 225 247 268 272 237 228 223 217 205 185 164 169 177 222 233 200 208 239 252 249 252 237 227 226 223 218 214 214 211 208 207
280 276 265 261 270 236 210 208 223 251 265 302 313 277 218 195 182 187 186 188 202 227 204 192 203 207 243 237 231 221 221 227 222 214 213 214 206 201
266 275 274 268 268 256 215 209 222 225 217 210 244 299 294 240 208 194 195 197 204 225 198 183 196 204 228 259 253 239 223 227 222 224 216 213 206 200
258 270 271 264 258 253 225 219 188 167 175 168 202 285 287 274 262 228 207 208 217 227 199 182 198 204 211 246 265 263 246 227 221 225 224 212 210 208
265 284 291 283 255 225 221 116 130 140 163 183 238 266 276 281 286 270 293 192 278 222 191 193 198 201 206 231 246 248 255 254 231 228 223 215 214 210
288 331 20 45 57 63 55 49 37 101 156 221 260 288 331 355 360 343 289 268 297 326 25 181 187 190 211 226 228 241 240 234 236 237 236 231 224 218
128 68 55 59 47 40 38 30 32 47 42 15 30 36 21 11 353 351 332 244 221 267 303 355 181 192 209 211 222 241 253 258 250 237 230 243 246 236
119 124 112 115 116 90 61 5 4 7 360 38 56 55 51 23 354 357 6 21 298 296 305 310 308 65 76 242 225 243 254 262 265 246 229 238 257 254
127 145 160 204 185 105 109 315 308 317 328 96 86 43 35 39 7 349 345 338 328 325 324 321 293 186 226 293 306 229 246 264 259 253 241 243 254 261
136 148 190 220 207 201 237 278 286 344 8 13 24 2 337 301 314 311 311 319 320 323 326 324 282 247 239 265 289 299 245 237 245 252 253 255 265 271
138 155 181 207 221 219 250 282 285 298 311 312 331 312 281 259 272 279 290 293 298 300 293 296 294 281 263 241 278 302 295 244 238 249 247 251 267 278
157 179 200 218 222 213 225 246 299 319 313 292 281 278 277 264 259 267 275 280 287 284 287 302 326 347 266 246 277 296 304 309 284 270 246 232 243 252
230 220 227 239 236 220 226 232 247 264 266 268 270 267 269 273 274 265 260 262 272 280 286 289 299 293 275 264 279 294 298 302 305 315 299 280 247 252
Height
1530 1530 1530 1530 1530 1530 1530 1530 1530 1529 1528 1528 1529 1529 1529 1529 1528 1528 1528 1527 1527 1527 1527 1527 1527 1527 1527 1527 1528 1529 1529 1530 1530 1531 1531 1531 1532 1532
1526 1526 1526 1526 1526 1526 1527 1527 1527 1527 1525 1525 1526 1526 1526 1526 1526 1526 1525 1525 1524 1524 1524 1524 1524 1524 1525 1525 1526 1526 1527 1527 1527 1527 1527 1528 1528 1529
1523 1523 1523 1523 1523 1523 1523 1523 1523 1523 1522 1522 1523 1523 1523 1523 1523 1523 1522 1522 1522 1522 1522 1522 1522 1522 1523 1523 1523 1523 1524 1524 1524 1524 1524 1524 1525 1525
1520 1520 1520 1520 1520 1520 1519 1519 1519 1520 1520 1519 1519 1520 1520 1520 1520 1519 1519 1519 1519 1519 1519 1519 1519 1519 1519 1520 1520 1520 1520 1520 1520 1521 1521 1521 1522 1522
1516 1516 1516 1517 1516 1516 1516 1516 1516 1516 1516 1516 1516 1516 1516 1517 1516 1516 1516 1516 1516 1516 1516 1516 1516 1516 1516 1516 1516 1516 1516 1516 1516 1517 1517 1518 1518 1518
1512 1512 1513 1513 1513 1513 1513 1513 1513 1513 1513 1512 1512 1512 1512 1513 1513 1512 1512 1513 1513 1513 1513 1513 1513 1513 1513 1513 1513 1513 1513 1513 1513 1513 1514 1514 1514 1515
1508 1508 1508 1509 1509 1509 1509 1509 1509 1509 1509 1509 1508 1508 1508 1508 1508 1508 1508 1508 1509 1509 1509 1509 1509 1509 1509 1509 1509 1509 1509 1509 1509 1509 1510 1510 1511 1511
1504 1504 1504 1505 1505 1505 1505 1505 1505 1505 1505 1505 1504 1504 1504 1504 1504 1505 1504 1504 1504 1506 1505 1505 1506 1505 1506 1505 1505 1505 1506 1506 1506 1506 1506 1507 1507 1507
1500 1500 1500 1501 1501 1501 1501 1501 1501 1501 1501 1501 1501 1501 1501 1501 1501 1501 1501 1501 1501 1502 1502 1501 1502 1502 1502 1502 1502 1502 1502 1503 1503 1503 1503 1503 1503 1504
1496 1496 1496 1497 1497 1497 1497 1497 1497 1497 1497 1497 1498 1497 1498 1498 1497 1497 1497 1497 1497 1498 1498 1498 1498 1498 1499 1499 1499 1499 1499 1499 1499 1499 1500 1500 1500 1500
1492 1492 1492 1492 1493 1493 1493 1493 1493 1493 1494 1494 1494 1494 1494 1494 1494 1493 1493 1493 1493 1494 1494 1494 1494 1494 1495 1495 1495 1496 1496 1496 1496 1496 1496 1497 1497 1497
1488 1488 1488 1489 1489 1489 1489 1489 1489 1489 1490 1490 1490 1491 1490 1490 1490 1490 1490 1490 1490 1490 1490 1490 1490 1491 1491 1491 1492 1492 1493 1493 1493 1493 1493 1493 1494 1494
1485 1485 1485 1485 1485 1486 1486 1486 1486 1486 1487 1487 1486 1486 1487 1487 1487 1486 1486 1487 1487 1486 1487 1487 1487 1487 1487 1487 1487 1488 1489 1490 1490 1490 1490 1490 1490 1490
1482 1482 1482 1482 1483 1483 1483 1483 1483 1483 1483 1483 1483 1483 1483 1483 1483 1483 1483 1484 1484 1484 1484 1485 1484 1484 1484 1484 1484 1485 1486 1486 1487 1487 1487 1487 1487 1487
1480 1480 1480 1480 1480 1480 1481 1481 1481 1480 1480 1480 1480 1480 1480 1480 1481 1481 1480 1480 1480 1481 1481 1481 1481 1481 1481 1481 1481 1482 1482 1483 1483 1483 1483 1484 1484 1483
1478 1478 1478 1478 1478 1478 1478 1478 1478 1478 1477 1477 1477 1478 1478 1478 1478 1478 1478 1478 1478 1477 1478 1478 1478 1478 1478 1478 1479 1479 1479 1479 1479 1480 1480 1481 1481 1480
1476 1476 1476 1476 1475 1475 1475 1475 1476 1475 1475 1475 1475 1475 1475 1475 1475 1475 1475 1475 1475 1474 1474 1475 1475 1475 1476 1476 1476 1476 1476 1476 1476 1476 1477 1477 1477 1477
1474 1474 1474 1473 1473 1473 1473 1473 1473 1473 1473 1473 1473 1473 1473 1473 1473 1473 1473 1473 1473 1472 1472 1472 1472 1472 1473 1473 1474 1473 1473 1473 1473 1473 1473 1473 1473 1474
1472 1472 1472 1472 1472 1472 1472 1472 1472 1472 1472 1471 1471 1471 1471 1471 1471 1471 1471 1471 1470 1470 1471 1471 1470 1470 1470 1470 1470 1471 1470 1470 1470 1470 1470 1470 1470 1470
1470 1470 1470 1471 1470 1470 1470 1470 1471 1471 1470 1470 1470 1470 1469 1469 1469 1469 1469 1469 1469 1469 1468 1468 1468 1468 1468 1468 1468 1467 1468 1467 1467 1467 1467 1467 1467 1467
1468 1469 1469 1469 1469 1469 1469 1469 1469 1469 1469 1469 1469 1469 1468 1468 1467 1467 1468 1467 1467 1467 1466 1466 1466 1466 1466 1466 1466 1465 1465 1465 1465 1465 1465 1464 1464 1463
1467 1467 1468 1468 1468 1468 1468 1468 1468 1468 1468 1468 1467 1467 1467 1466 1466 1466 1466 1465 1465 1465 1464 1464 1464 1464 1464 1464 1463 1463 1463 1463 1463 1463 1463 1463 1462 1461
1466 1466 1466 1466 1466 1466 1466 1466 1466 1466 1466 1466 1466 1465 1465 1465 1464 1464 1464 1463 1463 1462 1462 1461 1461 1461 1461 1461 1461 1461 1460 1460 1460 1460 1459 1459 1459 1459